www.pogodaiklimat.ru

АРХИВ ПОГОДЫ в Форт Смит

Время (UTC), дата Ветер
(напр.,м/с)
 
Видим.   Явления Облачность Т
(С)
Тd
(С)
f
(%)
Тe
(С)
Тes
(С)
Комфортность

P
(гПа)

Po
(гПа)
Тmin
(С)
Tmax
(С)
R
(мм)
SD
(см)
20:29 23.03 В  6 км  гроза, дождь  10/8 1950 м
[средняя] 
+13.9  +8.3  69  +13  +14      1001.5         
20:42 23.03 В  3 км  гроза, дождь  10/5 1950 м
[средняя] 
+13.3  +9.4  77  +11  +12               
20:49 23.03   5 км  гроза с дождем  10/2 1500 м
[средняя] 
+13.0  +9.0  77  +13  +16               
20:53 23.03 СВ  5 км  гроза с сильным дождем  10/5 1500 м
[средняя] 
+12.8  +9.4  80  +12  +14    1017.9           
21:12 23.03 В  5 км  гроза, слабый дождь  10/5 1500 м
[средняя] 
+13.3  +9.4  77  +11  +11               
21:32 23.03 В  5 км  слабый дождь  10/0 2400 м
[средняя] 
+13.3  +8.9  75  +11  +12      999.8         
21:53 23.03 В  5 км  слабый дождь  10/0 2100 м
[средняя] 
+13.3  +8.9  75  +12  +13    1017.3           
22:06 23.03 ЮВ  13 км  гроза со слабым дождем  10/0 2100 м
[средняя] 
+12.8  +9.4  80  +12  +12      1001.1         
22:12 23.03 В  3 км  гроза с сильным дождем  10/5 750 м
[средняя] 
+12.2  +8.9  80  +10  +11      1000.5         
22:21 23.03 В  5 км  гроза со слабым дождем  10/10 810 м  +12.2  +9.4  83  +11  +11      1000.5         
22:30 23.03 В  14 км  слабый дождь  10/10 750 м  +12.8  +9.4  80  +11  +11      1000.5         
22:53 23.03 В  4
{7} 
16 км    10/10 1800 м  +12.8  +8.9  77  +11  +11    1017.7  1000.8  +12.2  +16.1  9.1   
23:53 23.03 В  16 км    10/10 1800 м  +12.8  +8.9  77  +11  +11    1017.7  1000.8         
00:53 24.03 В  16 км    10/10 1800 м  +12.2  +9.4  83  +10  +10    1018.0  1000.8         
01:53 24.03 СВ  16 км  слабый дождь  10/10 1800 м  +12.2  +9.4  83  +10  +10    1018.6  1001.5         
02:53 24.03 В  16 км    10/10 1800 м  +12.2  +8.9  80  +9  +9    1018.4  1001.5         
03:53 24.03 В  16 км    10/10 1500 м  +12.2  +8.9  80  +10  +10    1017.5  1000.5         
04:53 24.03 В  16 км    10/10 1500 м  +11.7  +9.4  86  +9  +9    1017.2  1000.5  +11.7  +13.3     
05:53 24.03 СВ  16 км  гроза  10/10 1380 м  +12.2  +9.4  83  +9  +9    1017.7  1000.8         
06:05 24.03 СВ  16 км    10/8 1320 м
[средняя] 
+11.7  +9.4  86  +9  +9      1000.5         
06:53 24.03 СВ  16 км    8/8 1260 м
[средняя] 
+12.2  +9.4  83  +10  +10    1017.8  1000.8         
07:30 24.03 СВ  16 км  гроза  10/10 1140 м  +12.2  +9.4  83  +10  +10      1000.5         
07:53 24.03 В  6 км  гроза, дождь  10/10 510 м  +12.2  +9.4  83  +9  +9    1016.7  999.8      1.8   
08:00 24.03 В  14 км  слабый дождь  10/10 510 м  +12.2  +9.4  83  +9  +9      999.5         
08:43 24.03 В  16 км    10/10 870 м  +12.2  +9.4  83  +10  +10      999.8         
08:53 24.03 В  16 км    10/10 870 м  +12.2  +9.4  83  +10  +10    1016.8  999.8         
09:53 24.03 В  16 км    10/10 780 м  +12.2  +10.0  86  +11  +11    1017.0  999.8         
10:53 24.03 В  16 км    10/10 660 м  +11.7  +10.0  89  +10  +10    1017.2  1000.1  +11.7  +12.2  1.8   
11:53 24.03 СВ  16 км    10/10 540 м  +11.7  +10.0  89  +9  +9    1017.6  1000.5         
12:48 24.03 В  4 км  дымка  10/10 630 м  +12.0  +11.0  94  +10  +10      1000.8         
12:53 24.03 В  3 км  дымка  10/10 630 м  +11.7  +10.6  93  +10  +10    1017.6  1000.5         
13:29 24.03 СВ  5 км  дымка  10/10 630 м  +12.2  +10.6  90  +11  +11      1000.8         
13:53 24.03 СВ  6 км  дымка  10/10 570 м  +12.2  +11.1  93  +10  +10    1018.0  1001.1         
14:32 24.03 СВ  8 км  дымка  10/10 120 м  +13.3  +11.7  90  +12  +12      1000.8         
14:53 24.03 В  10 км  дымка  10/10 120 м  +13.9  +12.2  89  +13  +13    1018.0  1001.1         
15:32 24.03 В  13 км    10/10 750 м  +15.0  +12.8  87  +14  +14      1000.5         
15:49 24.03 СВ  14 км    10/10 720 м  +15.0  +13.0  88  +14  +14      1000.5         
15:53 24.03 СВ  14 км    10/10 720 м  +15.6  +12.8  83  +15  +15    1017.2  1000.5         
16:29 24.03 нст  16 км    10/10 750 м  +17.2  +13.9  81  +18  +18      999.8         
16:53 24.03   16 км    10/10 810 м  +18.9  +14.4  75  +20  +20    1016.4  999.5  +11.7  +18.9  0.3   
17:53 24.03 Ю  16 км    10/10 750 м  +21.1  +15.6  71  +24  +24  комфорт  1015.4  998.5         
18:06 24.03 Ю  16 км    10/10 810 м  +21.7  +15.6  68  +25  +25  комфорт    998.1         
18:13 24.03 Ю  16 км    8/8 810 м  +21.7  +15.6  68  +25  +26  комфорт    998.5         
18:53 24.03 Ю  16 км    8/8 900 м  +21.7  +15.0  66  +25  +26  комфорт  1014.6  997.8         
19:53 24.03 ЮЗ  16 км    8/8 1110 м  +22.2  +15.0  64  +26  +27  душно  1014.4  997.8         
20:53 24.03 Ю  16 км    5/2 1080 м
[средняя] 
+23.3  +15.6  62  +28  +30  душно  1013.8  997.1         
21:27 24.03 ЮЗ  16 км  гроза  5/5 1140 м  +23.3  +15.0  60  +27  +28  душно    996.8         
21:53 24.03 Ю  16 км  гроза, слабый дождь  5/2 1230 м
[средняя] 
+21.7  +15.6  68  +25  +27  комфорт  1013.5  996.8         

 

Местоположение метеостанции Fort Smith Regional Airport: широта 35.3336 долгота -94.3650 высота над уровнем моря 142 м.

В архиве по умолчанию представлена погода в Форт Смит за последние 1-2 суток. Обновление информации о фактической погоде в базе происходит ежечасно! Архивные данные за месяц целиком и за предыдущие месяцы Вы можете получить, выбрав интересующий диапазон дат из раскрывающегося списка и нажав кнопку "Ввод!".

Внимание! Архив погоды МЕТАР в базе сайта в настоящее время начинается c 1 января 2011 г. Нет смысла пытаться выбрать более раннюю дату.

Внимание! Время в таблицах - всемирное. Для получения местного времени необходимо прибавить поправку, которая в Форт Смит равна -6 ч.

Ветер - указаны скорость ветра в м/с и направление, откуда дует ветер: С - северный, СВ - северо-восточный, В - восточный, ЮВ - юго-восточный, Ю - южный, ЮЗ - юго-западный, З - западный, СЗ - северо-западный.
Видимость - горизонтальная дальность видимости в метрах или километрах. При видимости от 1 до 10 км при отсутствии осадков обычно наблюдается дымка, при ухудшении видимости до 1 км и менее - туман. В сухую погоду видимость может ухудшаться дымом, пылью или мглою.
Атмосферные явления - указаны явления, наблюдавшиеся в указанный момент времени.
Облачность - указаны через наклонную черту верхняя и нижняя облачность в баллах и высота нижней границы облаков в метрах. Внимание: облачность, как и прочие метеорологические величины в США измеряются автоматическими метеостанциями. Указанные значения в баллах носят условный характер и показывают процент времени, в течение которого, в среднем, лазерный луч высотомера отражался от облаков обратно.
T - Температура воздуха - температура, измеренная на высоте 2 м над землей.
Td - Температура точки росы - температура, при понижении до которой содержащийся в воздухе водяной пар достигнет насыщения.
f - Относительная влажность воздуха - влажноcть воздуха, измеренная на высоте 2 м над землей.
Te - Эффективная температура - температура, которую ощущает одетый по сезону человек в тени. Характеристика душности погоды. При расчете учитывается влияние влажности воздуха и скорости ветра на теплоощущения человека.
Tes - Эффективная температура на солнце - температура, которую ощущает человек, с поправкой на солнечный нагрев. Характеристика знойности погоды. Зависит от высоты солнца над горизонтом, облачности и скорости ветра. Ночью, в пасмурную погоду, а также при ветре 12 м/с и более поправка равна нулю.
P - Атмосферное давление - приведенное к уровню моря атмосферное давление.
Po - Атмосферное давление - измеренное на уровне метеостанции атмосферное давление.
Tmin - Минимальная температура - минимум температуры воздуха на высоте 2 м над землей.
Tmax - Максимальная температура - максимум температуры воздуха на высоте 2 м над землей.
R - Количество осадков - Количество выпавших осадков за 3 или 6 часов, мм.
SD - Снежный покров - Высота снежного покрова, см.